Weather History for Charleroi, Belgium

Change the Weather History Date:

Friday, February 15, 2013

  Actual Average Record
Temperature  
Mean Temperature 37 °F -  
Max Temperature 41 °F 46 °F 62 °F (1998)
Min Temperature 33 °F 34 °F 23 °F (2003)
Degree Days  
Heating Degree Days 28    
Moisture  
Dew Point 36 °F    
Average Humidity 95    
Maximum Humidity 100    
Minimum Humidity 88    
Precipitation  
Precipitation 0.03 in - - ()
Sea Level Pressure  
Sea Level Pressure 30.07 in    
Wind  
Wind Speed 6 mph ()    
Max Wind Speed 9 mph    
Max Gust Speed -    
Visibility 0.9 miles    
Events Fog , Rain    
Averages and records for this station are not official NWS values.
T = Trace of Precipitation, MM = Missing Value Source: Averaged Metar Reports

Daily Weather History Graph

Daily Weather History Graph

Search for Another Location

Airport:

Trip Planner

Search our weather history database for the weather conditions in past years. The results will help you decide how hot, cold, wet, or windy it might be!

Date:

Astronomy

Feb. 15, 2013 Rise Set
Actual Time 7:53 AM CET 5:59 PM CET
Civil Twilight 7:19 AM CET 6:33 PM CET
Nautical Twilight 6:41 AM CET 7:11 PM CET
Astronomical Twilight 6:04 AM CET 7:49 PM CET
Moon 9:41 AM CET (2/15) No Moon Set
Length of Visible Light 11h 13m
Length of Day
10h 06m
Waxing Crescent, 28% of the Moon is Illuminated
Feb 15
Waxing Crescent
Feb 17
First Quarter
Feb 25
Full
Mar 4
Last Quarter
Mar 11
New

Hourly Weather History & Observations

Time (CET) Temp. Windchill Dew Point Humidity Pressure Visibility Wind Dir Wind Speed Gust Speed Precip Events Conditions
12:20 AM 33.8 °F 27.7 °F 32.0 °F 93% 29.95 in 1.1 mi SSW 6.9 mph - N/A Rain Light Rain Showers
12:50 AM 33.8 °F 27.7 °F 32.0 °F 93% 29.95 in 1.2 mi SSW 6.9 mph - N/A   Mostly Cloudy
1:00 AM 33 °F - 32 °F 94% 29.98 in 1 mi SSW 6.7 mph - - Rain Light Rain Showers
1:20 AM 33.8 °F 27.7 °F 32.0 °F 93% 29.95 in 1.4 mi SW 6.9 mph - N/A   Mostly Cloudy
1:50 AM 33.8 °F 27.7 °F 32.0 °F 93% 29.95 in 1.4 mi SSW 6.9 mph - N/A   Mostly Cloudy
2:20 AM 33.8 °F 26.4 °F 32.0 °F 93% 29.95 in 0.9 mi SSW 9.2 mph - N/A   Mostly Cloudy
2:50 AM 33.8 °F 29.6 °F 32.0 °F 93% 29.95 in 0.5 mi SW 4.6 mph - N/A Fog , Rain Light Rain Showers
3:20 AM 33.8 °F 27.7 °F 32.0 °F 93% 29.95 in 0.3 mi SSW 6.9 mph - N/A Fog Fog
3:50 AM 33.8 °F 26.4 °F 32.0 °F 93% 29.95 in 0.3 mi SW 9.2 mph - N/A Fog Fog
4:20 AM 33.8 °F 27.0 °F 33.8 °F 100% 29.95 in 0.2 mi SSW 8.1 mph - N/A Fog Fog
4:50 AM 33.8 °F 27.0 °F 32.0 °F 93% 29.98 in 0.1 mi SW 8.1 mph - N/A Fog Fog
5:20 AM 33.8 °F 27.7 °F 33.8 °F 100% 29.98 in 0.1 mi SW 6.9 mph - N/A Fog Fog
5:50 AM 33.8 °F 27.7 °F 33.8 °F 100% 29.98 in 0.2 mi SW 6.9 mph - N/A Fog Fog
6:20 AM 33.8 °F 29.6 °F 33.8 °F 100% 29.98 in 0.8 mi SW 4.6 mph - N/A   Mostly Cloudy
6:50 AM 33.8 °F 27.7 °F 33.8 °F 100% 30.01 in 0.8 mi SW 6.9 mph - N/A   Mostly Cloudy
7:00 AM 34 °F - 33 °F 95% 30.04 in 1 mi SW 6.7 mph - - Fog Light Fog
7:20 AM 33.8 °F - 33.8 °F 100% 30.01 in 0.9 mi Variable 2.3 mph - N/A Rain Light Rain
7:50 AM 33.8 °F 29.6 °F 33.8 °F 100% 30.01 in 0.7 mi South 4.6 mph - N/A   Mostly Cloudy
8:20 AM 35.6 °F 29.9 °F 33.8 °F 93% 30.04 in 0.9 mi SSW 6.9 mph - N/A   Mostly Cloudy
8:50 AM 35.6 °F 30.7 °F 33.8 °F 93% 30.04 in 0.7 mi SW 5.8 mph - N/A   Mostly Cloudy
9:20 AM 35.6 °F 29.2 °F 33.8 °F 93% 30.04 in 0.9 mi WSW 8.1 mph - N/A   Mostly Cloudy
9:50 AM 37.4 °F 32.1 °F 35.6 °F 93% 30.04 in 1.1 mi WSW 6.9 mph - N/A   Mostly Cloudy
10:00 AM 37 °F - 36 °F 92% 30.09 in 1 mi WSW 6.7 mph - -   Mist
10:20 AM 37.4 °F 33.8 °F 35.6 °F 93% 30.06 in 0.9 mi West 4.6 mph - N/A   Mostly Cloudy
10:50 AM 37.4 °F 34.9 °F 37.4 °F 100% 30.06 in 1.2 mi WSW 3.5 mph - N/A   Mostly Cloudy
11:20 AM 39.2 °F 35.0 °F 37.4 °F 93% 30.06 in 0.8 mi SSW 5.8 mph - N/A   Mostly Cloudy
11:50 AM 39.2 °F 35.0 °F 37.4 °F 93% 30.09 in 0.8 mi West 5.8 mph - N/A   Mostly Cloudy
12:20 PM 39.2 °F 34.2 °F 37.4 °F 93% 30.09 in 0.8 mi WSW 6.9 mph - N/A   Mostly Cloudy
12:50 PM 39.2 °F 33.6 °F 37.4 °F 93% 30.09 in 0.7 mi WSW 8.1 mph - N/A   Mostly Cloudy
1:00 PM 40 °F - 38 °F 90% 30.13 in 1 mi WSW 6.7 mph - -   Mist
1:20 PM 39.2 °F 34.2 °F 37.4 °F 93% 30.09 in 0.7 mi WSW 6.9 mph - N/A   Mostly Cloudy
1:50 PM 39.2 °F 34.2 °F 37.4 °F 93% 30.09 in 0.7 mi WSW 6.9 mph - N/A   Mostly Cloudy
2:20 PM 39.2 °F 34.2 °F 39.2 °F 100% 30.09 in 1.0 mi WSW 6.9 mph - N/A   Mostly Cloudy
2:50 PM 41.0 °F 37.1 °F 39.2 °F 93% 30.12 in 1.1 mi WSW 5.8 mph - N/A   Mostly Cloudy
3:20 PM 41.0 °F 37.1 °F 39.2 °F 93% 30.12 in 1.4 mi West 5.8 mph - N/A   Mostly Cloudy
3:50 PM 41.0 °F 36.4 °F 39.2 °F 93% 30.12 in - WSW 6.9 mph - N/A   Mostly Cloudy
4:00 PM 41 °F - 39 °F 88% 30.15 in 2 mi WSW 6.7 mph - -   Mist
4:20 PM 41.0 °F 38.0 °F 39.2 °F 93% 30.12 in - West 4.6 mph - N/A   Mostly Cloudy
4:50 PM 41.0 °F 36.4 °F 39.2 °F 93% 30.12 in - SW 6.9 mph - N/A   Mostly Cloudy
5:20 PM 41.0 °F 36.4 °F 39.2 °F 93% 30.12 in 2.5 mi SW 6.9 mph - N/A   Scattered Clouds
5:50 PM 41.0 °F 36.4 °F 39.2 °F 93% 30.12 in 2.5 mi SW 6.9 mph - N/A   Scattered Clouds
6:20 PM 39.2 °F 35.0 °F 37.4 °F 93% 30.15 in - SW 5.8 mph - N/A   Scattered Clouds
6:50 PM 39.2 °F 35.0 °F 37.4 °F 93% 30.15 in 1.4 mi SW 5.8 mph - N/A   Partly Cloudy
7:00 PM 39 °F - 38 °F 93% 30.19 in 1 mi SW 4.5 mph - -   Mist
7:20 PM 39.2 °F 35.9 °F 37.4 °F 93% 30.15 in 0.9 mi SSW 4.6 mph - N/A   Partly Cloudy
7:50 PM 37.4 °F 32.8 °F 37.4 °F 100% 30.15 in 0.3 mi SSW 5.8 mph - N/A Fog Fog
8:20 PM 35.6 °F 30.7 °F 35.6 °F 100% 30.18 in 0.1 mi SSW 5.8 mph - N/A Fog Fog
8:50 PM 35.6 °F 31.7 °F 35.6 °F 100% 30.18 in 0.1 mi SSW 4.6 mph - N/A Fog Fog
9:20 PM 35.6 °F 30.7 °F 35.6 °F 100% 30.18 in 0.1 mi SSW 5.8 mph - N/A Fog Fog
9:50 PM 35.6 °F 30.7 °F 35.6 °F 100% 30.18 in 0.2 mi SSW 5.8 mph - N/A Fog Fog
10:00 PM 36 °F - 35 °F 94% 30.23 in 0 mi SSW 6.7 mph - - Fog Partial Fog
10:20 PM 35.6 °F 30.7 °F 35.6 °F 100% 30.18 in 0.5 mi SW 5.8 mph - N/A Fog Fog
10:50 PM 35.6 °F 30.7 °F 35.6 °F 100% 30.18 in 1.0 mi SSW 5.8 mph - N/A   Mostly Cloudy
11:20 PM 37.4 °F 33.8 °F 35.6 °F 93% 30.18 in 1.0 mi SSW 4.6 mph - N/A   Mostly Cloudy
11:50 PM 37.4 °F 33.8 °F 35.6 °F 93% 30.18 in 1.5 mi SW 4.6 mph - N/A   Mostly Cloudy